Regional Weather Roundup
Issued by NWS Sterling, VA

Home | Current Version | Previous Version | Graphics & Text | Print | Product List | Glossary On
Versions: 1 2 3 4 5 6 7 8 9 10 11 12 13 14 15 16 17 18 19 20 21 22 23 24 25 26 27 28
000
ASUS41 KLWX 290610
RWRLWX

REGIONAL WEATHER ROUNDUP
NATIONAL WEATHER SERVICE BALTIMORE MD/WASHINGTON DC
200 AM EDT SUN MAY 29 2016

Note: "FAIR" indicates few or no clouds below 12,000 feet
with no significant weather and/or obstructions to visibility.
 TC=TEMPERATURE CELSIUS

 * =Non NWS site. Station does not report precipitation (e.g. rain,
    snow, etc.), thunder, or fog.

DCZ001-MDZ009-015-VAZ040>042-051-053>054-290700-
WASHINGTON METRO

CITY           SKY/WX    TMP DP  RH WIND       PRES   REMARKS
WASHINGTON NAT MOCLDY    70  64  81 S6        30.15F
DULLES         FAIR      69  61  75 S7        30.14F
ANDREWS AFB    PTCLDY    65  60  84 S3        30.14F
FT BELVOIR     FAIR      64  63  94 CALM      30.13F
QUANTICO       FAIR      70  63  78 S7        30.15F
COLLEGE PARK*  FAIR      68  61  77 CALM      30.14F
LEESBURG*      FAIR      72  66  83 S6        30.14F
MANASSAS*      FAIR      63  63 100 CALM      30.14F

$$

MDZ006>007-011-014-290700-
BALTIMORE METRO

CITY           SKY/WX    TMP DP  RH WIND       PRES   REMARKS
BWI AIRPORT    PTCLDY    67  59  75 CALM      30.14F
MD SCIENCE CTR   N/A     72  59  63 MISG      30.15F
MARTIN STATE   CLEAR     70  64  83 CALM      30.16F
ANNAPOLIS      PTCLDY    68  63  84 S5        30.14F
FORT MEADE*    PTCLDY    59  57  94 CALM      30.17F

$$

MDZ012-015-019>023-290700-
MARYLAND EASTERN SHORE

CITY           SKY/WX    TMP DP  RH WIND       PRES   REMARKS
OCEAN CITY     CLEAR     65  63  93 S3        30.16F
SALISBURY      CLEAR     59  57  93 CALM      30.16F
BAY BRIDGE AP* PTCLDY    70  64  83 S6        30.15S
CAMBRIDGE*       N/A     61  59  94 CALM      30.15S
EASTON*        CLEAR     65  64  95 CALM      30.19S

$$

MDZ017>025-290700-
SOUTHERN MARYLAND

CITY           SKY/WX    TMP DP  RH WIND       PRES   REMARKS
PATUXENT RIVER CLEAR     66  62  87 S3        30.14F
ST INIGOES     PTCLDY    65  63  93 CALM      30.14F
LEONARDTOWN*   PTCLDY    64  61  88 CALM      30.16F

$$

MDZ003>005-290700-
NORTH CENTRAL MARYLAND

CITY           SKY/WX    TMP DP  RH WIND       PRES   REMARKS
FREDERICK*     CLEAR     68  63  83 CALM      30.16F
HAGERSTOWN APT CLEAR     74  62  66 S8        30.13S
WESTMINSTER*   CLEAR     70  66  88 S3        30.16S

$$

MDZ501>502-290700-
WESTERN MARYLAND

CITY           SKY/WX    TMP DP  RH WIND       PRES   REMARKS
OAKLAND*       NOT AVBL
CUMBERLAND*    CLEAR     68  68 100 CALM      30.16S

$$

VAZ025>031-290700-
SHENANDOAH VALLEY

CITY           SKY/WX    TMP DP  RH WIND       PRES   REMARKS
WINCHESTER*    FAIR      68  59  73 CALM      30.13F
FRONT ROYAL*   FAIR      64  61  88 CALM      30.13S
LURAY*         FAIR      61  61 100 CALM      30.14F
NEW MARKET*    FAIR      61  61  99 CALM      30.14F
STAUNTON*      FAIR      60  59  97 CALM      30.18F
WAYNESBORO*    FAIR      63  59  86 CALM      30.18S

$$

WVZ021-048>050-054>055-290700-
EASTERN WEST VIRGINIA PANHANDLE

CITY           SKY/WX    TMP DP  RH WIND       PRES   REMARKS
MARTINSBURG    FAIR      65  63  93 W3        30.12F
PETERSBURG*    FAIR      64  63  98 CALM      30.14F FOG

$$

VAZ036>039-050-290700-
CENTRAL FOOTHILLS

CITY           SKY/WX    TMP DP  RH WIND       PRES   REMARKS
CHARLOTTESVILL FAIR      65  61  87 NW3       30.14F
CULPEPER*      FAIR      63  63 100 CALM      30.14F
ORANGE*        FAIR      63  63 100 CALM      30.16F
GORDONSVILLE*  FAIR      62  62  99 CALM      30.14F
WARRENTON*     FAIR      63  58  81 CALM      30.14F

$$

VAZ055>057-290700-
NORTH AND CENTRAL PIEDMONT

CITY           SKY/WX    TMP DP  RH WIND       PRES   REMARKS
FREDERICKSBRG* FAIR      65  62  89 CALM      30.14F
STAFFORD*      FAIR      60  58  92 CALM      30.18F

$$

NCZ024-NYZ072-PAZ021-071-VAZ022-071-290700-
OTHER REGIONAL OBSERVATIONS

CITY           SKY/WX    TMP DP  RH WIND       PRES   REMARKS
NEW YORK CITY  CLEAR     76  56  49 VRB5      30.16R
PHILADELPHIA   PTCLDY    70  59  68 S7        30.16R
PITTSBURGH     PTCLDY    72  65  78 CALM      30.11F
ROANOKE        FAIR      67  61  81 CALM      30.18F
RICHMOND       FAIR      67  62  84 CALM      30.15F
RALEIGH        CLOUDY    73  65  75 E6        30.12F

$$

ANZ530>537-290700-
MARINE OBSERVATIONS

STATION/POSITION TIME  TEMP    WIND        PRES
                       AIR SEA DIR/SP/G
                 (UTC) (F)     (DEG/KT/KT) (MB)
THOMAS PT LIGHT  0600   68 68  180/  9/ 10 1022.1F
BALT KEY BRIDGE  0500   72     220/  4/  5 1020.9R
COVE POINT       0500   67     190/  7/  8 1021.6F
LEWISETTA        0500   70 71  200/  8/  9 1020.7F
SOLOMONS ISLAND  0500   69 66  130/  4/  5   N/A
PINEY POINT      0500          180/  8/ 10   N/A

$$





USA.gov is the U.S. government's official web portal to all federal, state and local government web resources and services.